Regional Weather Roundup
Issued by NWS Sioux Falls, SD

Home | Current Version | Previous Version | Text Only | Print | Product List | Glossary Off
Versions: 1 2 3 4 5 6 7 8 9 10 11 12 13 14 15 16 17 18 19 20 21 22 23 24 25 26 27 28 29 30 31 32 33 34 35 36 37 38 39 40 41 42 43 44 45 46 47 48 49 50

000
ASUS43 KFSD 170910
RWRFSD

WEATHER ROUNDUP FOR SE SOUTH DAKOTA/SW MINNESOTA/NW IOWA
NATIONAL WEATHER SERVICE SIOUX FALLS SD
300 AM CST TUE JAN 17 2017

NOTE: "FAIR" INDICATES FEW OR NO CLOUDS BELOW 12,000 FEET WITH NO
SIGNIFICANT WEATHER AND OR OBSTRUCTIONS TO VISIBILITY.


SDZ038>040-050-052>070-171000-
SOUTHEAST SOUTH DAKOTA

CITY           SKY/WX    TMP DP  RH WIND       PRES   REMARKS
BROOKINGS      CLOUDY     8   6  92 NW7       29.98S FOG     WCI  -3
CHAMBERLAIN    CLOUDY    14  12  91 W7        30.06R WCI   4
HURON          CLOUDY     2  -1  88 NW5       30.06R WCI  -8
MADISON          N/A     10  10 100 N8          N/A  WCI  -1
MITCHELL       CLOUDY    10   7  87 W6        30.06R WCI   0
SIOUX FALLS    FOG       20  20 100 NW10      29.99S VSB 1/4 WCI   9
WINNER         FAIR      19  14  81 W12       30.06R WCI   7
YANKTON        CLOUDY    16   9  73 CALM      30.04R
$$

MNZ071-072-080-081-089-090-097-098-171000-
SOUTHWEST MINNESOTA

CITY           SKY/WX    TMP DP  RH WIND       PRES   REMARKS
FAIRMONT       FOG       30  28  93 N16       29.94R VSB 3/4 WCI  19
JACKSON        CLOUDY    28  28 100 NW9       29.94S FOG     WCI  20
LUVERNE        CLOUDY    28  25  86 NW7       29.98S WCI  21
MARSHALL       CLOUDY    20  18  92 NW13      30.00S FOG     WCI   7
MONTEVIDEO     CLOUDY    19  18  93 N7        30.02S WCI  10
PIPESTONE      CLOUDY    27  25  93 N6        29.96S FOG     WCI  20
REDWOOD FALLS  CLOUDY    25  23  92 NW9       29.98R FOG     WCI  15
TRACY          CLOUDY    23  22  96 NW8       29.99R WCI  14
WINDOM         FOG       27  25  93 NW12      29.95S VSB 3/4 WCI  16
WORTHINGTON    CLOUDY    28  27  96 N12       29.96R FOG     WCI  18
$$

IAZ001>003-012>014-020>022-031-032-NEZ013-014-SDZ071-171000-
NORTHWEST IOWA

CITY           SKY/WX    TMP DP  RH WIND       PRES   REMARKS
CHEROKEE       CLOUDY    32  32 100 N8        29.96R FOG     WCI  25
DENISON        CLOUDY    32  32 100 NW8       29.94R FOG     WCI  25
ESTHERVILLE    CLOUDY    29  29 100 N14       29.93S FOG     WCI  18
LE MARS        CLOUDY    27  25  93 W8        30.01R FOG     WCI  18
SHELDON        MIX PCPN  30  30 100 NW12      29.95S WCI  21
SIOUX CITY     CLOUDY    24  20  84 NW16      30.01R WCI  11
SPENCER        CLOUDY    31  30  96 NW13      29.95R WCI  21
STORM LAKE     CLOUDY    32  30  93 N13       29.93R WCI  22
$$

ABBREVIATIONS USED IN REMARKS
   TC - TEMPERATURE IN CELSIUS
  WCI - WIND CHILL INDEX
   HX - HEAT INDEX
  VSB - VISIBILITY





USA.gov is the U.S. government's official web portal to all federal, state and local government web resources and services.